View from above orbital plane
|
View from above satellite
|
Ground track
|
The orbit data is extracted from the following two-line orbital elements,
1 45U 60007A 21065.95268990 -.00000038 00000-0 17422-4 0 9996
2 45 66.6948 49.1165 0249197 125.5248 236.9373 14.33708285160332
Epoch (UTC): | 06 March 2021 22:51:52 |
Eccentricity: | 0.0249197 |
inclination: | 66.6948° |
perigee height: | 601 km |
apogee height: | 958 km |
right ascension of ascending node: | 49.1165° |
argument of perigee: | 125.5248° |
revolutions per day: | 14.33708285 |
mean anomaly at epoch: | 236.9373° |
orbit number at epoch: | 16033 |
The dashed part of the orbit path shows where the satellite is in the earth's shadow,
|
|